Location: Caltech
(34.1382°N, 118.1253°W)
Time: 04:25:35
(UTC-07:00)

Tiros 1 despin weight - Visible Passes

Search period start: 29 April 2017 00:00
Search period end: 09 May 2017 00:00
Orbit: 595 x 644 km, 48.2° (Epoch: 27 April)

Date Brightness Start Highest point End Pass type
(mag) Time Alt. Az. Time Alt. Az. Time Alt. Az.
29 Apr ? 21:18:41 10° WNW 21:23:10 48° SW 21:24:19 39° S visible
30 Apr ? 19:54:02 10° NW 19:58:39 57° NE 20:03:11 10° ESE visible
30 Apr ? 21:36:20 10° W 21:39:58 23° SW 21:40:49 22° SSW visible
01 May ? 20:11:02 10° NW 20:15:42 74° SW 20:20:16 10° SE visible
02 May ? 20:28:22 10° WNW 20:32:36 34° SW 20:36:44 10° SSE visible
03 May ? 20:46:28 10° W 20:49:20 16° SW 20:52:10 10° SSW visible
